Weather History for KIPT - April, 2014

Change the Weather History Date:

Saturday, April 19, 2014

  Actual Average Record
Temperature  
Mean Temperature 48 °F 51 °F  
Max Temperature 63 °F 63 °F 91 °F (1976)
Min Temperature 33 °F 40 °F 23 °F (1926)
Degree Days  
Heating Degree Days 17 14  
Month to date heating degree days 326 326  
Since 1 July heating degree days 6158 5622  
Cooling Degree Days 0 0  
Month to date cooling degree days 9 0  
Year to date cooling degree days 9 0  
Moisture  
Dew Point 28 °F    
Average Humidity 55    
Maximum Humidity 89    
Minimum Humidity 21    
Precipitation  
Precipitation 0.00 in 0.10 in 1.40 in (1998)
Month to date precipitation 1.92 2.08  
Year to date precipitation 8.61 10.09  
Snow  
Snow 0.00 in 0.00 in 2.50 in (1907)
Month to date snowfall T 1.0  
Since 1 July snowfall 45.9 35.9  
Snow Depth 0.00 in    
Sea Level Pressure  
Sea Level Pressure 30.32 in    
Wind  
Wind Speed 6 mph (North)    
Max Wind Speed 15 mph    
Max Gust Speed 22 mph    
Visibility 10 miles    
Events      
T = Trace of Precipitation, MM = Missing Value Source: NWS Daily Summary

Daily Weather History Graph

Daily Weather History Graph

Search for Another Location

Airport or City:

Trip Planner

Search our weather history database for the weather conditions in past years. The results will help you decide how hot, cold, wet, or windy it might be!

Date:

Astronomy

Apr. 19, 2014 Rise Set
Actual Time 6:22 AM EDT 7:52 PM EDT
Civil Twilight 5:53 AM EDT 8:21 PM EDT
Nautical Twilight 5:18 AM EDT 8:56 PM EDT
Astronomical Twilight 4:41 AM EDT 9:33 PM EDT
Moon No Moon Rise 9:37 AM EDT (4/19)
Length of Visible Light 14h 27m
Length of Day
13h 29m
Waning Gibbous, 79% of the Moon is Illuminated
Apr 19
Waning Gibbous
Apr 22
Last Quarter
Apr 29
New
May 6
First Quarter
May 14
Full

Hourly Weather History & Observations

Time (EDT) Temp. Windchill Dew Point Humidity Pressure Visibility Wind Dir Wind Speed Gust Speed Precip Events Conditions
12:54 AM 41.0 °F 39.0 °F 33.1 °F 73% 30.26 in 10.0 mi NNW 3.5 mph - N/A   Clear
1:54 AM 39.9 °F 37.8 °F 33.1 °F 77% 30.26 in 10.0 mi NW 3.5 mph - N/A   Clear
2:54 AM 37.9 °F 34.4 °F 32.0 °F 79% 30.27 in 10.0 mi NNW 4.6 mph - N/A   Clear
3:54 AM 37.0 °F - 30.9 °F 79% 30.27 in 10.0 mi Calm Calm - N/A   Clear
4:54 AM 36.0 °F 33.3 °F 32.0 °F 86% 30.27 in 10.0 mi North 3.5 mph - N/A   Clear
5:54 AM 36.0 °F - 30.9 °F 82% 30.29 in 10.0 mi Calm Calm - N/A   Clear
6:54 AM 35.1 °F - 30.9 °F 85% 30.31 in 9.0 mi Calm Calm - N/A   Mostly Cloudy
7:54 AM 37.9 °F - 33.1 °F 83% 30.34 in 10.0 mi Calm Calm - N/A   Clear
8:54 AM 45.0 °F 41.8 °F 35.1 °F 68% 30.35 in 10.0 mi West 5.8 mph - N/A   Clear
9:54 AM 51.1 °F - 28.0 °F 41% 30.35 in 10.0 mi Variable 5.8 mph - N/A   Clear
10:54 AM 54.0 °F - 23.0 °F 30% 30.36 in 10.0 mi NNW 10.4 mph - N/A   Clear
11:54 AM 57.0 °F - 25.0 °F 29% 30.34 in 10.0 mi NNE 9.2 mph - N/A   Clear
12:54 PM 60.1 °F - 25.0 °F 26% 30.31 in 10.0 mi Variable 6.9 mph 23.0 mph N/A   Clear
1:54 PM 61.0 °F - 26.1 °F 26% 30.30 in 10.0 mi NNE 10.4 mph - N/A   Clear
2:54 PM 62.1 °F - 27.0 °F 26% 30.30 in 10.0 mi NNW 8.1 mph - N/A   Clear
3:54 PM 62.1 °F - 28.0 °F 28% 30.30 in 10.0 mi NNE 12.7 mph 19.6 mph N/A   Clear
4:54 PM 61.0 °F - 27.0 °F 27% 30.29 in 10.0 mi North 13.8 mph 18.4 mph N/A   Clear
5:54 PM 59.0 °F - 19.0 °F 21% 30.31 in 10.0 mi ENE 13.8 mph - N/A   Clear
6:54 PM 57.0 °F - 17.1 °F 21% 30.32 in 10.0 mi NNE 11.5 mph - N/A   Clear
7:54 PM 54.0 °F - 18.0 °F 24% 30.33 in 10.0 mi NNE 6.9 mph - N/A   Clear
8:54 PM 51.1 °F - 26.1 °F 38% 30.36 in 10.0 mi North 5.8 mph - N/A   Clear
9:54 PM 48.9 °F - 28.0 °F 44% 30.39 in 10.0 mi North 6.9 mph - N/A   Clear
10:54 PM 46.9 °F - 28.9 °F 50% 30.40 in 10.0 mi Calm Calm - N/A   Clear
11:54 PM 45.0 °F - 28.0 °F 52% 30.40 in 10.0 mi Calm Calm - N/A   Clear